RH
65 70 77 80 82 84 83 82 79 73 71 69 67 65 65 69 71 71 71 63 54 56 56 52 51 52 55 60 59 56 55 52 47 43 35 28 28 29 29 32 31 36 66 91 74 48 44 49 54 64 75 84 90 95 96 97 98 94 87 79 64 55 60 64 64 71 77 83 90 93 97 98 91 88
65 66 70 74 77 82 85 88 87 83 81 78 73 70 67 68 69 73 79 74 59 55 57 55 53 53 55 61 62 60 58 53 49 51 47 34 31 41 45 43 38 36 55 77 66 44 39 40 44 54 65 75 83 89 94 96 97 95 93 89 77 62 58 62 64 65 69 77 86 90 95 100 97 91
68 68 70 72 72 75 79 83 87 87 86 84 80 76 73 74 75 74 78 80 69 60 61 62 60 59 59 63 64 61 59 57 56 61 62 45 33 44 52 46 43 42 43 52 51 40 35 36 40 46 53 62 72 81 87 90 92 94 92 91 86 74 61 58 63 65 66 70 79 87 91 94 96 93
69 68 69 69 68 70 73 77 82 86 86 86 83 80 75 72 73 73 77 85 80 71 71 70 65 65 67 66 64 60 59 60 60 59 56 47 38 40 43 40 42 45 43 44 42 35 30 32 37 41 44 47 55 68 79 84 87 90 92 94 94 88 75 63 61 62 64 68 75 83 87 86 89 90
69 69 69 67 65 66 68 71 76 80 83 86 86 85 83 77 73 73 75 79 75 68 67 69 68 69 71 68 64 62 60 58 59 57 53 54 55 50 41 35 33 35 39 42 41 37 31 27 29 32 36 39 42 51 65 74 78 82 87 91 95 97 90 77 66 60 60 66 71 79 87 88 87 89
71 71 71 70 67 65 64 63 65 66 70 74 77 81 85 85 84 84 84 83 79 72 68 68 67 69 72 71 65 61 61 59 57 58 59 62 67 66 60 50 37 28 30 33 36 38 36 31 28 26 29 34 37 40 48 57 66 74 79 82 86 92 90 80 71 64 60 60 61 67 79 88 91 91
76 74 74 75 74 72 70 68 65 63 62 62 67 70 73 76 79 82 84 84 82 79 75 70 67 66 68 69 64 60 61 61 59 61 66 71 75 77 76 64 47 34 31 30 31 32 34 35 32 25 22 27 32 35 38 43 52 62 68 71 75 78 77 72 67 63 59 57 55 57 66 79 88 91
80 80 79 78 77 76 76 76 75 73 70 68 68 69 70 71 71 71 75 77 78 79 76 73 72 70 68 67 67 66 63 62 65 70 75 81 82 81 77 67 51 40 35 34 32 29 29 32 32 27 22 20 23 30 34 36 40 45 52 57 62 66 67 65 62 59 56 53 51 52 58 68 79 84
87 87 85 83 82 81 80 81 81 80 79 77 74 72 73 75 74 73 74 73 75 77 77 78 78 77 76 73 69 65 62 62 70 78 79 78 76 73 73 69 55 42 38 38 36 33 29 28 29 27 24 20 18 21 27 32 35 36 38 43 48 53 56 57 56 55 54 51 48 47 50 57 68 76
90 89 88 87 87 87 85 84 84 83 82 83 81 79 78 78 77 78 78 77 77 78 79 80 81 81 80 74 65 68 73 73 75 76 72 67 65 64 65 65 58 49 46 46 46 46 42 36 31 27 23 21 18 16 19 25 30 32 33 35 37 41 44 46 47 47 48 48 47 45 44 45 54 65
91 90 89 89 89 88 86 85 84 83 84 86 86 83 81 78 80 83 84 83 82 81 81 81 81 80 77 68 64 73 81 80 78 74 68 64 62 61 62 64 65 61 58 57 58 59 60 56 49 41 32 25 20 17 16 19 24 28 30 31 32 33 35 37 38 39 40 40 41 41 41 40 41 50
93 92 92 90 89 87 85 84 84 83 84 88 91 92 89 85 88 93 94 92 89 86 84 83 80 79 78 73 70 75 79 79 76 69 65 65 63 63 66 67 68 69 71 72 70 66 67 69 66 61 52 41 30 24 20 18 20 24 27 29 30 30 31 32 33 34 34 34 35 34 35 36 35 37
95 95 94 92 90 88 86 84 83 84 86 87 90 96 98 97 98 99 98 96 95 92 88 85 84 82 82 83 81 81 81 80 75 68 69 73 69 65 67 69 72 77 81 85 82 75 72 73 73 73 69 58 47 40 35 28 23 22 24 27 29 29 30 30 30 32 32 31 32 31 30 31 30 30
97 96 96 95 95 94 93 91 87 90 97 97 93 92 92 94 98 100 100 100 97 95 90 86 85 84 82 84 84 83 84 82 78 75 75 74 68 67 76 85 86 86 86 88 87 80 76 77 78 77 74 68 63 58 51 43 35 29 24 24 26 28 29 30 30 31 31 30 29 29 29 28 27 26
97 98 99 99 99 99 100 98 95 95 101 102 99 98 94 90 91 93 97 100 100 99 91 82 82 84 83 84 85 85 87 86 83 80 78 76 72 72 83 90 83 77 80 89 93 86 81 83 83 79 74 69 66 64 58 53 49 42 33 26 24 25 26 28 30 30 31 31 31 30 29 28 27 26
98 99 100 100 100 101 100 100 100 99 100 101 100 101 101 97 96 93 91 91 92 94 92 86 84 84 85 89 90 88 87 87 85 82 80 80 77 74 77 79 72 71 84 97 100 93 88 88 89 87 82 72 66 64 60 57 55 49 42 34 27 26 26 26 28 30 31 31 31 31 31 30 29 28
100 100 100 100 100 100 100 101 102 100 100 101 100 100 100 100 101 100 97 93 88 85 87 87 87 85 84 86 84 78 79 83 83 81 81 82 81 79 81 83 79 83 95 100 97 94 93 94 96 97 89 75 66 63 61 60 58 52 47 41 34 29 28 27 27 29 31 33 33 32 31 32 33 33
101 100 100 101 100 100 101 100 100 100 98 99 100 100 100 100 98 97 99 100 98 94 92 90 87 83 82 82 78 73 74 76 75 74 76 79 82 85 90 93 93 94 97 96 95 95 89 86 91 94 85 72 66 65 65 65 62 56 52 49 43 37 34 31 30 30 31 35 40 44 42 39 41 44
101 100 100 101 100 99 98 96 96 97 97 99 100 98 98 96 93 90 88 88 92 95 96 96 94 90 87 84 82 79 79 79 76 73 72 74 83 92 95 97 97 96 97 98 100 98 86 80 87 90 83 77 75 74 73 73 72 68 63 60 60 58 52 45 40 38 38 39 47 62 69 65 61 59
101 100 100 99 98 96 94 93 96 98 98 100 102 101 98 95 92 88 81 77 78 80 84 87 91 95 96 94 92 90 89 88 86 85 84 86 93 98 97 95 94 93 96 99 100 99 92 88 91 91 88 88 85 80 78 78 78 79 76 75 82 87 84 78 72 68 67 65 69 81 88 88 85 76
100 100 101 99 99 99 96 95 98 101 101 100 101 101 100 98 97 92 85 82 82 84 89 92 91 94 97 98 99 99 99 98 96 96 97 97 99 100 96 92 88 88 93 96 98 101 96 90 92 92 90 91 90 85 84 81 80 83 84 86 94 99 97 95 93 91 90 88 89 91 90 91 96 93
100 100 101 98 91 87 86 89 94 100 101 100 100 101 100 100 100 94 88 88 88 89 95 100 99 98 97 96 98 98 98 99 99 100 99 97 98 100 97 90 85 86 89 89 91 98 94 88 93 95 93 95 97 94 92 89 87 89 87 88 94 98 97 94 92 93 92 92 93 93 91 92 95 96
99 98 99 99 90 84 87 92 97 101 100 99 101 100 99 102 100 91 87 91 90 87 89 92 94 97 97 97 99 99 98 100 100 100 100 99 100 101 97 91 89 88 86 82 87 95 95 91 95 97 97 97 93 89 91 91 90 89 88 87 90 92 95 95 94 94 95 96 97 96 95 97 98 97
98 97 99 100 96 95 97 95 95 98 98 99 101 100 100 101 95 88 90 95 93 90 91 90 90 91 91 93 96 97 98 99 97 97 96 96 99 100 96 93 92 89 84 82 87 95 96 94 94 94 96 96 88 83 88 90 88 86 86 86 85 86 89 93 94 95 96 97 99 98 97 97 96 97
99 100 100 96 92 94 95 92 94 99 98 96 97 97 99 98 91 87 93 97 96 96 97 96 94 94 95 96 96 97 98 96 93 93 92 90 96 101 98 95 94 90 86 85 89 93 95 95 93 92 95 98 94 89 88 87 84 82 83 86 86 85 88 89 88 88 89 90 94 96 97 98 97 97
99 100 101 96 92 92 90 88 92 95 93 94 95 95 97 98 98 97 98 99 99 99 100 99 99 99 100 99 99 99 97 94 94 94 92 90 95 99 99 100 99 95 92 92 92 92 93 94 95 95 96 98 96 95 96 92 84 79 83 90 88 86 89 90 88 87 85 84 84 84 86 91 95 98
99 100 101 98 94 91 87 85 88 91 94 97 100 100 98 97 96 97 98 100 101 100 100 100 100 100 100 100 102 99 92 90 92 90 86 87 89 90 90 93 95 96 96 98 98 96 95 96 97 98 99 98 97 98 99 95 87 82 86 91 89 86 89 90 89 88 87 85 83 81 84 89 93 95
100 100 100 98 91 87 87 90 93 95 95 94 93 93 91 88 85 86 91 98 101 100 101 100 100 101 100 99 100 95 85 81 84 84 82 86 90 89 87 86 86 90 93 95 98 100 99 99 100 99 100 100 99 98 94 90 90 91 93 95 90 85 86 91 92 90 89 89 89 91 96 98 97 97
100 99 98 96 89 88 93 98 95 88 83 80 81 83 84 84 83 84 91 98 100 100 100 99 98 100 100 99 96 92 86 83 84 83 83 89 94 96 95 92 87 86 88 91 95 97 98 99 101 100 100 100 101 99 95 93 96 97 98 99 94 87 88 93 94 91 90 90 89 93 99 100 99 100
101 99 98 96 94 95 97 93 85 78 76 77 80 84 85 86 87 91 97 100 100 100 100 99 98 98 98 97 96 94 95 96 97 94 91 93 96 97 98 98 93 87 86 89 93 95 97 100 100 100 101 100 100 100 98 97 98 98 99 101 99 95 95 96 95 95 96 94 92 94 99 101 100 100
100 96 94 96 98 97 94 86 80 79 80 80 82 85 87 90 94 98 101 100 99 100 100 100 100 99 97 96 95 95 97 99 100 99 98 99 99 98 99 101 99 93 90 90 91 91 94 99 101 99 100 101 99 100 100 99 99 99 99 100 100 98 97 97 98 100 100 99 99 100 100 100 100 100
94 89 92 98 100 98 95 91 86 83 82 83 84 86 88 92 96 99 101 100 100 101 100 100 100 100 99 98 97 98 100 100 99 100 100 100 101 100 100 100 100 99 98 97 95 91 89 95 100 100 100 100 100 100 100 100 100 101 100 99 99 99 98 98 99 101 100 99 100 100 100 100 100 100
87 89 96 101 101 100 99 93 85 83 84 85 85 86 88 92 95 98 100 101 101 101 100 100 101 101 100 99 99 99 100 100 100 100 100 100 100 100 100 100 100 100 100 100 100 96 91 93 98 100 100 100 100 100 100 100 100 100 99 98 98 99 100 99 99 100 100 101 100 100 100 101 100 100
87 95 100 100 100 101 98 90 84 85 87 85 83 84 87 91 95 97 99 99 99 100 100 100 100 101 100 100 100 99 99 99 99 99 100 100 100 100 100 100 100 100 100 100 101 99 95 96 99 100 100 100 100 100 100 100 100 100 99 99 100 100 100 99 100 101 100 99 99 98 99 99 99 100
96 100 100 99 100 101 96 88 84 87 90 87 84 84 85 88 93 96 97 98 98 99 100 100 101 101 101 100 100 100 99 98 98 98 98 99 100 100 97 95 97 101 100 100 100 100 99 99 100 100 100 100 100 100 100 100 100 100 99 100 100 100 100 100 100 100 99 98 97 95 95 96 97 97
101 101 99 99 101 100 93 86 84 88 92 90 87 87 86 87 89 92 96 99 101 101 101 100 100 101 101 100 100 100 100 100 99 98 98 99 100 100 95 90 92 98 101 100 100 100 100 100 100 100 100 99 100 100 98 98 97 96 99 101 100 99 100 101 100 99 97 94 92 91 91 93 93 93
101 100 100 101 100 96 89 85 85 90 93 91 90 90 89 88 88 90 94 99 102 103 102 101 101 101 100 100 101 100 100 100 100 98 97 98 100 101 97 91 90 95 100 100 99 100 100 100 100 100 97 97 100 98 92 93 96 95 95 98 97 96 99 101 100 99 96 90 87 87 86 87 90 91
100 100 101 101 97 91 86 83 86 92 94 93 93 94 93 93 91 90 92 97 101 102 102 101 101 102 101 101 101 100 100 101 99 94 93 97 100 100 96 91 88 92 97 99 99 100 101 99 100 101 96 93 95 92 85 89 97 96 92 92 93 94 98 101 100 98 94 87 85 86 86 86 89 90
100 101 100 97 93 89 86 84 88 94 96 94 95 96 96 96 95 92 92 96 99 101 100 100 100 101 101 101 101 100 100 100 96 91 90 94 98 98 95 90 88 92 97 99 98 100 101 99 100 101 97 91 88 83 78 82 91 93 91 92 94 96 99 101 100 97 92 87 86 88 88 88 88 88
102 100 96 94 92 90 88 89 93 98 98 95 96 97 98 99 97 95 94 95 98 100 100 100 100 100 100 101 100 100 100 100 98 97 96 96 98 98 96 91 89 92 97 99 98 100 101 100 99 100 98 94 88 83 81 84 90 95 97 97 97 98 100 100 99 96 90 86 86 88 88 88 89 88
102 98 94 94 93 91 91 94 97 98 96 94 95 97 100 101 100 97 95 95 98 100 100 101 102 102 100 100 100 100 100 100 100 100 100 98 98 99 99 95 93 94 98 99 99 100 99 98 98 99 99 98 95 91 89 89 92 98 101 99 99 100 100 100 100 97 90 86 86 88 89 89 89 90
102 98 95 94 94 94 95 97 97 95 93 92 93 97 101 102 101 98 97 97 97 98 100 101 102 102 101 100 100 100 100 100 100 100 101 99 98 100 101 99 97 98 99 97 97 97 98 98 100 100 100 100 100 95 88 86 91 98 101 100 100 101 100 100 101 99 93 89 87 86 87 87 87 87
99 96 94 94 96 98 98 95 93 91 89 88 92 97 101 103 102 101 100 98 96 96 98 100 101 102 102 101 100 100 100 100 100 100 100 100 100 100 101 100 98 98 99 97 97 98 100 100 100 100 100 101 100 94 87 86 92 99 101 100 101 101 100 100 101 98 94 92 90 88 86 84 80 79
95 93 93 95 98 99 96 91 87 85 85 86 90 94 98 101 102 102 100 97 95 94 96 99 101 101 101 100 100 101 100 100 101 101 100 100 101 100 100 100 100 100 100 100 100 100 101 100 100 100 100 100 99 96 91 91 96 100 101 100 100 101 100 101 101 97 94 93 94 93 90 86 81 77
93 93 95 99 100 97 91 87 84 82 82 82 84 87 90 94 97 99 98 96 94 93 94 96 98 99 99 98 99 101 101 100 100 101 100 100 100 100 100 100 100 100 101 100 100 100 100 100 100 100 100 101 101 99 97 95 97 100 101 100 100 101 100 100 101 100 99 98 97 96 93 90 86 82
Wind_Speed
15 14 13 13 14 13 14 15 16 16 17 16 16 16 15 13 9 6 6 7 6 7 8 8 8 7 6 7 9 12 13 14 16 18 19 19 17 15 14 12 11 9 7 8 7 7 6 4 3 3 4 4 6 8 7 4 4 6 5 6 12 17 17 16 12 8 4 2 2 4 7 15 25 29
15 15 14 14 14 14 13 14 14 15 16 16 17 17 16 15 13 10 8 8 9 9 9 9 9 9 9 9 11 14 15 18 19 18 18 18 16 14 13 12 12 10 9 8 8 8 8 7 5 4 4 5 6 7 6 3 4 8 7 4 6 11 14 15 15 12 8 4 1 2 4 5 11 19
14 15 15 15 15 14 14 14 14 14 15 16 16 16 16 16 16 14 11 8 9 11 10 10 10 11 12 12 14 16 17 18 18 15 15 18 18 16 16 15 14 12 12 11 10 10 9 8 8 7 7 7 8 8 7 5 6 9 8 4 4 7 12 15 15 12 9 7 5 3 2 4 4 3
16 16 17 17 16 15 14 15 14 14 14 14 15 16 16 17 16 16 15 10 10 12 13 12 13 13 15 15 16 17 16 15 15 15 18 19 19 19 20 19 17 15 14 13 12 12 10 10 10 11 10 9 9 9 9 8 9 8 7 6 6 5 7 11 14 13 11 9 8 7 4 4 4 1
18 18 19 20 20 18 17 17 16 16 15 14 14 14 15 17 17 17 17 14 12 15 16 15 15 15 15 16 15 16 16 16 16 17 18 18 18 19 20 21 20 19 17 16 15 14 13 12 12 12 12 12 12 12 11 11 11 9 7 8 8 6 6 7 10 12 13 12 11 9 7 6 5 4
19 19 19 20 20 20 21 21 21 20 20 19 17 15 14 15 15 15 17 16 15 16 18 17 17 16 15 16 16 16 17 17 17 18 17 17 17 18 18 19 20 19 18 18 17 15 14 14 13 13 14 15 15 14 13 12 12 10 11 11 10 8 8 7 7 8 10 13 14 14 11 9 8 6
19 20 21 20 20 19 20 22 22 22 23 22 21 20 19 18 17 16 16 17 17 17 18 18 18 17 17 17 17 17 17 17 18 18 18 16 16 16 16 18 19 18 17 17 17 17 16 16 16 15 16 16 17 16 15 15 15 15 15 14 13 12 11 10 9 9 9 11 13 17 16 13 11 11
19 20 21 22 21 20 21 21 21 21 22 22 22 21 20 19 20 19 18 18 18 18 19 19 17 17 18 18 17 17 17 17 17 17 15 14 14 15 17 19 19 17 15 15 16 17 18 18 17 17 17 18 18 18 18 18 18 18 18 16 16 15 13 13 13 13 13 12 12 15 18 17 14 13
20 20 21 22 21 21 22 22 22 22 22 22 21 22 21 20 19 19 19 20 20 20 21 20 18 17 18 18 18 18 18 17 15 14 13 13 15 16 17 18 18 16 14 14 15 16 17 18 19 18 18 19 19 20 19 19 20 20 20 19 18 18 17 16 16 15 16 16 15 14 16 17 17 15
22 22 23 23 21 21 23 23 23 23 23 22 22 22 22 21 21 20 20 19 20 21 22 21 20 19 18 19 19 17 15 14 14 14 15 16 17 17 17 18 18 16 14 14 14 15 16 17 19 19 20 20 20 21 22 21 21 21 22 22 21 20 20 19 19 18 18 18 18 17 17 17 17 17
23 24 24 24 23 24 25 26 26 25 24 23 23 24 24 23 22 21 19 19 19 21 20 20 20 20 19 20 19 16 14 15 16 16 16 17 17 17 16 16 16 16 15 14 13 13 14 15 16 18 20 20 21 22 23 24 24 23 23 23 23 23 22 22 21 21 21 21 20 19 19 18 18 19
22 23 23 23 23 23 24 25 26 27 25 23 21 21 21 21 20 18 16 16 18 18 18 19 19 18 18 19 19 18 17 17 18 18 17 16 16 16 15 15 16 16 15 13 12 12 12 13 15 16 18 20 21 22 23 25 26 26 25 24 24 24 24 23 23 23 23 23 22 21 20 20 20 20
21 23 23 23 23 22 22 23 24 25 25 25 23 19 18 18 17 15 14 14 14 15 16 17 17 16 17 17 17 18 18 16 18 18 14 14 16 17 17 18 17 15 14 14 14 13 12 13 13 14 16 18 20 21 23 25 26 27 27 26 26 26 25 25 25 24 24 24 23 22 21 21 21 22
23 24 25 25 25 24 24 23 24 24 24 25 25 24 22 20 17 15 15 14 13 13 14 15 15 16 17 17 17 18 19 18 18 17 13 14 17 16 15 15 15 12 12 13 14 11 10 11 11 12 14 15 16 18 21 23 25 26 27 28 28 27 27 26 26 25 24 24 24 23 22 22 22 23
26 27 27 27 26 25 25 25 26 25 25 25 24 24 26 26 24 21 19 16 15 14 15 16 17 16 17 18 17 18 18 18 19 19 15 13 14 13 10 11 12 10 8 9 11 9 7 8 10 10 11 12 13 16 18 20 21 24 26 28 29 29 28 27 27 27 26 25 24 24 24 23 23 24
28 28 28 28 26 25 24 25 26 25 25 25 24 23 23 25 27 28 27 24 21 20 19 19 18 19 19 19 18 20 21 20 20 19 16 14 14 14 12 12 13 11 6 5 7 8 8 9 10 11 12 12 13 14 15 16 18 21 25 27 28 29 29 28 28 28 27 27 26 26 26 25 25 25
27 27 27 26 25 24 23 23 24 24 24 25 25 25 23 23 25 27 29 30 29 29 27 23 22 24 24 23 24 26 25 22 20 18 16 15 14 14 14 14 15 14 9 8 10 9 9 10 10 11 13 14 14 14 14 15 17 20 23 26 28 29 29 29 29 29 29 29 28 28 28 28 27 27
21 22 23 23 22 21 20 21 22 22 22 23 24 25 25 26 26 26 27 29 30 31 32 31 30 29 27 27 28 27 24 23 23 21 18 16 14 15 16 15 17 18 15 13 12 11 13 14 12 13 15 16 16 15 14 14 16 19 22 24 26 28 28 29 30 30 31 30 29 28 29 29 29 29
17 16 18 19 18 17 17 18 19 19 20 21 23 24 26 27 28 28 28 29 28 27 28 31 33 32 30 30 30 28 25 25 25 24 21 19 17 16 17 17 18 20 18 13 9 10 15 15 12 13 16 16 16 14 13 13 14 17 20 22 23 24 25 27 28 29 30 30 29 27 26 28 29 29
14 14 15 15 15 15 15 15 17 18 19 20 22 24 25 26 27 28 28 28 29 29 27 28 30 30 29 29 29 28 27 26 26 25 22 21 19 17 16 16 17 17 14 10 10 11 15 14 11 13 13 12 13 14 12 12 13 14 16 18 19 20 21 23 24 25 25 26 26 24 24 25 27 28
13 13 14 14 13 14 14 14 15 17 20 21 22 23 24 25 27 27 25 25 26 28 28 28 28 28 27 27 26 26 25 25 25 22 20 21 19 15 12 11 14 16 13 11 11 12 14 15 12 12 13 12 13 13 10 10 12 12 14 15 17 19 19 20 21 22 22 23 23 24 24 24 25 26
13 13 15 15 13 13 12 11 12 15 20 22 24 24 24 25 27 26 23 23 24 24 25 26 26 26 27 27 27 27 26 26 24 23 25 24 18 13 12 13 15 15 15 16 14 12 15 16 12 12 12 11 12 13 12 12 12 12 13 15 16 18 19 19 20 21 21 22 23 24 25 25 25 25
12 13 16 16 14 13 13 12 14 16 18 22 25 27 27 28 29 28 24 23 23 22 23 24 24 25 26 26 28 28 28 28 26 26 29 26 17 14 16 16 13 10 12 15 13 12 14 13 10 10 8 4 6 10 9 9 8 8 9 12 14 16 17 18 19 20 21 22 23 23 24 25 25 24
11 14 17 16 14 13 12 12 14 16 17 19 22 25 28 31 31 28 25 25 25 24 24 23 23 24 25 25 27 29 29 29 29 29 31 30 22 17 18 17 14 12 12 12 9 10 10 7 6 8 7 4 3 3 3 3 3 3 5 7 9 11 13 14 16 18 19 20 21 22 23 24 25 25
11 14 17 16 12 11 10 12 13 14 15 16 18 21 26 29 29 28 27 27 26 26 26 25 25 24 24 24 25 26 27 29 29 28 29 30 26 21 20 18 16 17 17 15 12 12 10 8 8 7 5 5 4 2 1 3 3 2 3 4 5 5 7 9 11 13 15 16 17 19 20 22 24 26
13 13 16 15 11 10 10 12 14 14 14 15 17 17 19 21 22 24 26 27 26 26 26 25 24 23 21 21 22 23 25 25 26 25 25 26 25 23 23 21 18 18 17 14 15 15 13 11 11 8 5 4 4 4 3 4 4 3 2 2 2 2 3 6 8 9 11 12 14 15 17 19 22 24
13 12 13 13 10 10 13 15 14 13 13 14 16 15 15 17 17 17 18 19 23 27 26 23 22 21 20 20 19 22 25 25 25 25 24 24 23 23 24 24 24 23 20 15 14 15 14 13 11 10 9 8 5 4 5 4 5 5 3 4 5 5 5 6 8 9 10 11 12 13 14 16 19 22
15 13 13 12 11 13 16 15 12 11 11 15 18 18 18 19 19 18 16 14 15 20 22 21 20 21 22 22 21 23 25 25 24 24 24 23 23 22 22 23 24 25 24 21 18 16 16 15 13 13 13 11 6 4 4 4 5 6 6 7 7 6 5 6 8 10 11 11 11 11 11 14 16 18
19 18 16 14 15 16 15 12 11 13 16 18 19 18 16 16 16 16 15 13 12 13 15 16 17 19 22 24 26 26 25 24 23 23 23 23 23 21 20 21 22 24 24 23 21 18 17 17 15 14 14 13 10 8 6 6 7 7 7 7 6 7 8 8 8 9 10 11 12 12 12 14 15 15
17 18 17 16 17 16 14 14 15 17 17 18 17 16 14 14 14 14 12 11 12 13 13 13 14 14 15 18 20 21 21 22 23 24 24 23 22 21 21 20 21 23 23 23 23 19 16 17 17 15 15 14 13 12 10 9 9 9 8 7 6 7 7 6 7 9 10 12 12 12 13 14 15 15
16 16 16 17 17 15 14 15 15 15 16 17 16 15 13 13 13 12 11 10 11 12 12 11 12 13 14 15 16 17 18 20 22 22 23 22 21 21 20 18 19 22 23 23 23 22 20 20 19 17 17 17 15 14 13 12 12 10 9 9 8 6 6 7 8 9 10 10 10 11 12 14 16 17
18 17 16 15 15 15 14 14 14 14 14 14 14 13 12 12 12 11 11 10 11 11 11 11 11 12 14 15 15 16 17 19 21 22 23 22 20 19 18 16 16 18 18 18 21 23 23 22 20 20 21 21 18 16 15 15 14 12 10 10 10 10 10 10 9 8 7 6 6 8 8 10 12 14
18 17 15 15 15 15 14 14 13 12 12 11 10 9 10 10 11 10 10 10 10 10 10 11 11 12 12 13 13 14 14 17 20 21 22 22 20 18 19 18 16 16 16 15 16 20 23 23 21 20 21 22 21 18 16 13 12 12 12 11 11 12 12 11 9 8 8 8 6 5 4 3 5 7
18 18 16 16 16 17 16 13 12 11 10 9 7 6 7 7 8 8 9 9 10 10 10 11 11 12 12 12 13 13 13 15 17 18 20 22 20 18 17 16 15 17 17 14 13 16 20 21 19 17 18 20 21 22 20 16 11 11 13 13 12 12 12 10 10 10 10 10 8 7 6 4 3 3
19 18 17 16 17 18 16 13 11 10 9 8 7 6 6 5 5 6 7 8 9 10 11 11 11 10 10 10 11 12 13 14 15 16 18 20 20 19 18 15 13 16 17 14 12 14 17 17 17 16 15 15 15 16 19 19 15 14 14 15 15 14 12 11 11 10 9 9 9 8 6 5 4 4
17 17 17 16 16 18 16 12 10 10 9 9 8 8 7 6 5 6 7 7 8 9 10 10 10 10 9 9 10 11 12 12 13 15 16 17 19 20 19 17 15 16 17 15 13 13 15 17 18 15 10 7 6 6 10 16 19 17 15 14 15 15 13 12 11 10 9 8 8 7 6 5 4 3
14 15 16 16 17 18 14 10 9 10 9 9 8 7 8 9 8 7 6 7 7 8 8 9 10 10 10 10 10 10 12 12 13 13 14 16 18 19 17 16 16 16 17 15 13 14 16 19 20 17 10 5 5 5 6 11 17 19 17 15 14 14 14 14 12 11 10 8 7 7 6 5 3 2
14 15 16 16 17 16 12 9 10 10 9 9 8 8 9 9 8 7 7 6 6 6 7 8 9 10 10 10 10 11 12 12 12 12 12 14 16 16 14 14 15 16 16 15 13 14 18 21 22 20 13 7 6 6 6 8 11 16 18 17 16 15 15 16 15 14 11 9 7 6 5 4 3 2
16 18 18 16 15 13 10 9 9 9 9 8 8 8 8 8 7 7 7 6 5 5 6 6 7 8 9 9 9 10 11 12 12 13 13 13 14 14 14 14 15 14 14 14 13 14 18 22 24 23 18 12 10 12 11 10 11 13 15 16 16 16 17 19 18 16 13 10 9 8 6 4 2 1
12 14 14 12 11 9 8 8 9 9 9 8 8 8 8 7 6 6 6 6 5 5 5 5 6 7 7 7 7 8 11 13 13 13 13 13 14 15 14 14 14 13 13 12 12 15 19 23 24 23 21 18 16 16 13 10 9 10 11 12 14 15 17 19 19 17 15 13 11 9 7 5 3 1
9 9 9 9 8 7 7 8 8 8 8 8 8 7 7 6 5 5 5 5 5 5 5 5 6 6 6 6 5 6 9 12 13 13 14 15 15 16 16 15 14 13 12 10 12 16 21 23 22 21 22 20 16 12 8 6 6 7 8 9 10 13 15 18 18 16 14 14 14 10 7 6 4 3
9 8 8 7 7 7 7 8 8 8 7 7 7 6 6 5 5 5 4 4 4 4 4 5 5 5 6 5 4 4 7 10 11 11 13 15 14 15 17 16 14 12 12 11 12 16 19 20 19 19 19 18 16 12 7 5 7 9 8 7 7 9 11 13 15 14 12 12 13 11 7 5 4 3
8 7 7 6 6 7 8 8 8 7 7 6 6 5 5 5 5 4 4 4 3 2 3 4 5 6 6 5 3 3 5 8 9 9 12 15 15 15 16 16 14 12 12 13 13 14 15 15 15 16 16 16 16 13 9 9 13 15 14 12 11 11 11 10 12 13 12 12 11 9 7 6 4 2
7 7 7 7 8 8 8 8 7 7 6 6 5 5 5 5 5 4 4 2 2 1 2 4 5 6 8 7 5 3 3 5 6 6 9 13 15 14 14 14 13 13 14 14 13 12 12 13 14 16 16 16 16 12 9 11 14 16 16 17 16 16 16 15 14 14 14 13 11 8 7 7 4 1
7 7 8 8 9 9 9 8 7 7 6 6 5 5 4 5 4 4 3 1 1 1 2 3 4 6 8 9 9 7 4 1 3 4 7 10 12 13 14 15 15 14 15 15 14 14 12 12 13 14 14 14 14 11 10 12 15 16 17 18 18 18 18 17 17 16 15 13 12 10 9 7 5 3
Wind_Direction
257 255 253 252 252 251 246 244 242 242 242 242 244 246 247 253 264 277 279 276 275 270 266 273 279 274 278 289 293 302 305 302 305 305 303 306 305 300 295 288 284 281 294 312 289 252 236 214 180 168 158 144 136 121 111 136 164 153 162 210 232 240 252 262 271 285 314 20 112 161 192 210 215 217
255 253 252 250 250 248 244 242 240 237 237 237 238 242 243 245 250 260 271 270 266 266 263 265 274 281 289 299 301 304 306 304 307 309 305 302 301 295 287 278 273 268 273 284 275 255 241 228 214 200 195 185 170 153 133 129 158 158 160 187 221 232 242 253 261 264 269 290 310 124 122 167 205 219
252 251 250 247 246 245 243 243 241 237 235 234 235 236 237 239 242 249 260 266 259 257 259 261 263 274 285 294 299 302 304 304 304 303 299 296 294 287 279 273 268 263 262 264 265 260 248 236 229 222 217 202 191 187 178 175 167 152 150 165 196 220 229 238 246 250 252 260 264 243 167 147 159 198
254 254 253 250 248 246 244 241 239 237 235 234 234 235 236 237 238 244 254 265 266 259 259 265 266 271 279 284 289 293 296 297 295 293 293 293 289 282 277 273 267 263 262 261 261 259 252 244 236 231 227 216 206 201 195 196 189 162 145 161 179 194 209 223 234 237 236 236 241 247 235 207 203 203
256 255 255 255 252 249 247 244 240 238 235 234 234 234 235 237 237 241 249 260 269 265 261 264 267 270 275 275 276 282 287 289 289 289 290 288 283 280 279 276 270 265 262 261 260 258 254 250 243 238 233 226 219 212 207 205 197 189 191 191 182 163 158 189 216 224 228 227 226 230 226 222 224 226
257 256 256 256 256 254 252 250 248 245 242 240 240 238 235 237 237 236 244 254 263 266 262 262 264 266 268 270 272 276 280 283 285 285 283 280 279 279 281 280 275 269 264 261 259 257 255 251 248 243 237 233 227 220 217 213 206 209 216 211 203 190 184 193 198 205 221 226 228 232 229 219 208 203
255 255 256 256 255 256 255 253 252 250 248 246 246 244 241 241 241 238 240 248 257 265 264 261 262 263 264 268 272 273 274 278 280 279 277 277 275 277 282 284 280 271 264 259 256 253 252 250 248 245 241 237 233 228 223 218 217 220 221 219 219 219 218 221 219 215 221 226 228 231 234 230 213 202
253 252 253 254 253 253 253 253 253 251 250 248 246 245 244 243 244 243 242 244 251 260 265 261 258 260 264 266 270 273 275 276 275 273 272 272 274 279 285 287 283 273 263 258 255 251 249 248 247 245 242 240 236 233 228 224 223 225 226 227 227 228 230 231 231 231 232 233 231 227 229 233 231 218
250 249 249 251 251 249 249 249 249 249 249 248 246 246 246 243 244 244 243 245 247 252 259 262 259 258 261 265 269 271 272 272 270 269 270 274 280 284 286 287 285 277 266 257 250 245 243 242 243 243 240 239 237 234 231 229 227 227 228 230 231 232 232 233 233 234 234 236 236 231 226 230 236 235
253 251 252 252 249 246 247 247 246 247 247 246 245 245 246 247 247 247 245 245 246 249 254 259 260 257 256 261 267 265 261 261 266 273 279 283 283 283 283 286 287 283 273 261 250 244 239 236 237 238 237 236 235 233 230 229 228 228 228 230 231 232 232 233 234 233 235 237 237 235 230 228 234 238
258 257 256 255 253 249 248 247 246 246 244 244 245 246 248 250 248 247 247 246 247 249 251 254 257 257 256 257 259 256 255 262 270 277 283 285 283 282 281 281 283 285 279 266 253 243 237 234 232 232 233 233 232 232 230 228 228 227 227 228 229 231 231 232 234 234 234 237 238 238 234 231 233 235
261 261 259 258 256 253 252 250 248 246 243 241 242 244 245 246 243 241 243 245 246 247 250 252 254 256 256 254 253 254 258 264 268 271 273 275 280 284 284 281 280 279 277 270 259 245 236 233 229 225 227 228 228 229 229 228 228 227 226 226 226 229 231 231 233 235 236 237 239 240 238 236 235 236
264 263 262 261 259 257 255 253 251 250 245 241 239 237 233 233 232 233 237 241 242 243 247 251 253 254 253 251 251 253 254 254 262 269 269 270 278 285 289 289 284 274 268 268 266 253 236 233 231 226 225 225 224 226 227 228 228 227 226 226 225 225 228 230 232 234 236 239 241 241 242 240 239 239
269 269 268 267 266 263 259 256 253 248 241 238 239 238 234 232 229 229 232 234 236 239 244 248 249 252 253 251 249 252 254 255 261 269 269 270 279 286 290 291 287 275 262 260 262 255 237 230 230 228 227 225 224 225 227 229 230 229 228 227 227 226 227 228 230 232 234 238 241 243 244 244 243 242
273 274 273 273 271 265 260 257 254 248 239 236 238 239 238 237 234 231 231 231 231 233 240 247 247 247 251 252 249 251 256 258 260 263 265 270 279 283 283 287 288 279 257 247 251 257 252 236 232 239 242 236 232 231 231 231 233 233 231 229 229 229 229 229 229 231 232 234 236 240 242 243 244 244
273 273 273 274 272 267 262 257 254 251 243 238 237 239 241 239 235 233 233 234 234 232 234 239 239 240 244 247 247 248 252 256 260 263 264 262 265 269 270 274 277 274 269 272 272 270 265 251 245 255 262 257 248 243 240 239 237 234 232 231 231 230 230 230 230 231 232 232 233 234 236 238 240 242
270 268 266 267 267 268 264 255 252 252 249 243 238 239 242 243 241 238 236 236 237 236 234 233 235 239 240 242 248 252 253 254 258 260 256 252 254 260 260 259 266 272 282 302 300 285 269 261 255 259 268 270 263 254 248 244 241 236 232 230 230 230 230 230 230 231 231 231 231 231 232 233 235 237
270 267 263 261 262 264 260 253 251 251 249 246 242 239 238 240 241 243 243 242 241 239 236 235 240 244 243 245 253 258 255 252 253 252 250 248 249 254 257 258 268 275 279 286 292 283 272 268 261 260 268 275 274 265 255 247 240 237 232 229 228 229 229 229 230 230 231 231 230 229 229 230 231 232
269 266 262 258 255 256 255 252 251 249 246 243 242 241 240 239 239 240 243 245 246 246 243 242 245 249 250 251 256 260 258 256 256 256 256 257 255 260 267 270 272 275 275 272 264 265 270 267 259 260 267 274 277 269 254 243 239 235 231 228 227 227 227 229 229 230 231 232 231 229 228 229 229 230
264 256 253 252 249 250 254 254 251 248 245 242 241 241 244 246 246 245 245 245 247 249 250 251 252 253 254 254 257 260 259 259 261 260 258 256 254 258 267 270 269 272 273 259 236 245 266 267 258 262 267 272 275 269 254 242 237 233 229 227 228 228 228 229 230 230 231 231 231 230 229 229 230 232
256 244 241 245 248 251 257 262 257 244 236 238 242 243 245 248 250 252 252 250 248 248 249 252 253 252 252 251 252 253 252 254 257 250 244 245 244 246 255 262 265 266 265 256 239 238 259 266 261 267 272 271 271 269 260 248 238 232 231 228 228 230 230 230 231 231 231 231 231 231 231 231 234 236
255 243 238 238 245 255 260 264 259 243 232 234 239 243 245 246 249 255 258 256 254 251 248 249 250 251 251 250 251 252 250 251 249 239 238 242 235 227 237 251 262 265 264 264 254 238 254 264 261 266 273 270 267 266 263 260 251 241 236 230 228 229 230 231 232 232 233 234 233 233 233 233 235 238
254 247 238 233 238 253 261 258 253 247 239 235 235 238 239 240 245 253 257 256 257 257 253 251 250 248 248 247 249 251 252 252 250 245 248 250 236 224 235 243 252 261 267 269 254 229 241 256 254 257 259 248 264 265 255 250 247 237 229 225 223 225 226 227 230 232 234 236 235 236 236 235 235 237
252 249 240 232 230 237 251 262 262 260 254 246 242 237 233 235 245 253 252 249 252 254 254 256 255 251 250 247 246 248 250 252 252 250 253 255 250 244 247 247 246 247 257 269 249 218 230 255 268 267 258 230 240 240 181 193 218 212 214 216 214 217 220 222 226 228 231 234 236 238 238 237 236 236
253 246 233 224 221 226 247 269 273 269 265 262 260 251 241 243 252 256 250 248 249 248 248 252 254 254 253 252 251 250 250 253 254 252 252 254 251 245 244 246 246 245 249 256 247 232 242 272 281 282 270 237 224 206 209 266 273 247 226 219 210 208 212 218 225 228 230 233 235 237 238 238 237 236
252 244 229 220 219 229 252 271 273 269 269 269 268 266 261 260 260 253 247 244 241 239 240 242 244 244 244 246 249 252 253 256 257 255 254 255 253 247 244 245 246 248 248 247 243 242 251 263 263 263 262 244 226 214 225 268 299 300 245 210 234 245 233 233 239 243 244 245 246 246 244 242 238 237
245 244 235 225 222 238 259 271 271 270 276 281 282 286 288 285 281 273 262 248 236 232 229 227 230 233 235 236 239 246 253 256 255 255 257 259 257 254 252 250 248 250 251 248 245 245 249 255 258 258 259 255 231 197 198 236 290 291 259 260 285 286 270 263 263 264 264 263 262 261 258 250 245 240
239 241 238 231 235 253 264 267 267 269 277 283 285 287 288 285 283 282 279 267 246 233 224 218 221 226 230 234 237 245 255 259 260 263 265 263 260 259 258 255 251 251 252 251 248 244 244 249 255 258 260 258 246 224 222 242 266 266 261 274 289 291 285 283 279 275 274 272 269 266 260 255 250 244
235 239 242 244 251 258 260 260 265 274 281 284 284 283 283 282 282 281 276 268 256 244 233 228 228 227 229 234 239 245 253 258 261 263 264 263 261 259 259 257 251 247 247 248 246 243 240 243 246 250 253 251 246 246 251 257 262 262 261 266 282 295 296 291 282 278 278 278 278 276 267 260 253 245
232 236 241 248 253 253 253 259 269 278 285 287 287 286 284 281 282 282 275 261 250 246 243 241 241 240 238 240 244 247 248 248 251 253 254 255 255 254 255 254 248 244 242 241 241 239 236 236 237 239 243 244 242 244 249 255 260 262 262 261 271 288 290 281 279 283 284 284 285 285 277 266 256 249
229 233 236 240 246 248 251 259 269 279 286 288 288 287 285 281 278 275 270 259 251 247 245 244 247 250 252 252 254 254 248 244 244 245 245 245 248 251 251 246 245 248 247 242 239 237 235 235 232 231 236 240 241 243 247 251 252 254 260 265 266 270 271 269 274 278 278 281 282 279 274 265 256 251
231 235 235 233 237 243 249 256 265 276 283 284 282 281 280 276 272 269 264 257 254 252 251 251 252 252 252 252 253 254 250 244 240 239 238 238 241 245 241 232 234 243 245 242 240 238 236 235 231 228 232 237 240 244 248 248 246 246 256 267 272 274 272 268 266 260 248 244 250 254 259 258 252 249
230 233 233 226 225 233 240 248 261 272 274 270 268 269 271 269 267 268 265 261 260 259 257 256 255 255 255 255 254 255 253 248 242 237 235 234 233 233 230 223 222 230 233 233 236 236 234 231 228 227 231 236 240 242 242 240 240 243 254 266 274 277 272 261 249 232 207 197 201 201 196 219 235 238
226 228 226 222 222 225 229 236 251 262 263 261 262 265 266 263 263 266 265 265 269 269 267 264 260 257 256 256 255 254 253 250 244 236 232 232 228 224 222 218 217 223 227 225 226 231 231 227 222 222 230 236 239 241 240 237 234 241 254 263 267 268 264 248 226 213 205 201 194 175 153 140 140 161
218 219 219 220 221 220 220 228 243 251 254 258 265 274 280 276 268 271 274 276 276 274 273 272 267 261 256 253 253 251 249 247 242 235 231 229 223 221 226 226 219 217 219 220 220 222 225 224 214 210 218 228 234 238 238 235 233 240 250 257 257 256 252 235 215 209 209 207 199 187 170 147 130 132
214 214 214 214 213 211 213 222 234 241 247 253 259 273 288 292 285 282 285 288 285 281 278 275 273 269 261 257 256 254 250 248 243 236 231 224 219 220 225 228 226 218 213 214 216 214 216 217 208 196 195 206 213 220 225 225 229 234 239 245 249 247 238 223 210 206 208 209 206 203 195 172 150 139
214 213 212 209 206 207 210 218 227 233 241 248 255 267 279 285 288 287 288 291 292 291 285 276 272 269 264 261 262 260 254 247 241 238 235 227 221 219 218 221 226 222 213 211 212 210 212 214 207 198 195 199 200 206 213 215 220 227 230 232 238 236 224 211 203 201 205 212 219 219 208 183 157 137
217 211 207 204 202 204 207 215 225 230 233 240 251 260 266 273 281 286 289 294 301 305 300 286 276 272 267 261 259 260 256 246 235 235 238 228 216 211 213 220 226 222 213 207 206 209 214 214 207 201 201 202 200 209 208 197 207 221 226 226 227 225 213 202 198 199 201 205 209 209 202 184 169 153
216 207 202 199 199 202 208 219 228 231 230 234 245 252 256 261 270 277 283 292 304 313 311 303 292 283 273 266 260 257 256 250 239 234 235 228 215 208 212 221 224 216 204 199 201 207 211 211 208 205 206 206 208 215 215 203 201 213 220 222 223 220 210 201 196 195 197 199 196 190 184 183 187 187
194 191 192 195 199 206 216 228 232 231 231 233 239 245 252 256 261 265 273 288 307 318 320 318 311 297 282 274 270 262 255 252 245 233 225 224 219 213 212 218 220 213 202 198 203 205 208 212 213 211 211 214 217 219 216 203 193 199 207 214 218 217 212 207 200 193 191 191 189 185 184 187 194 215
190 187 190 198 208 218 225 231 229 225 226 230 233 239 248 251 254 257 263 279 299 310 319 330 334 324 304 289 282 273 261 257 253 237 222 218 218 218 217 217 215 209 203 201 203 208 215 220 220 215 215 217 213 202 190 176 171 179 190 201 208 208 208 208 206 202 199 195 188 183 184 189 194 207
201 198 198 204 218 225 224 222 219 216 218 222 225 230 234 234 239 249 256 265 278 293 313 332 344 344 330 307 292 283 268 263 261 246 225 217 215 216 216 213 207 202 201 203 206 211 215 218 216 214 213 207 195 186 181 174 167 165 167 173 183 189 195 202 205 204 202 197 192 188 182 178 183 207
199 203 209 217 224 221 214 209 206 204 206 211 214 217 216 215 221 231 240 253 265 283 319 339 356 10 4 343 316 304 280 267 265 252 229 217 213 210 208 206 202 198 199 201 201 202 205 205 203 201 198 191 190 196 197 177 168 165 161 154 152 156 163 174 184 184 181 182 188 193 193 189 190 225
206 213 218 221 217 207 198 194 190 190 193 197 198 200 200 200 208 218 226 244 268 306 340 349 5 22 24 18 11 354 304 270 262 246 223 214 211 206 200 195 192 191 191 188 180 178 186 190 188 187 187 187 191 197 189 170 166 166 162 157 153 152 152 154 161 168 171 172 171 170 174 182 187 213
214 215 211 206 199 190 184 180 177 175 177 179 180 184 184 182 188 199 207 221 266 352 355 353 9 26 31 29 25 21 13 309 246 222 204 201 202 198 189 185 182 178 177 174 167 163 168 174 178 184 189 191 193 196 190 177 170 165 162 160 158 158 158 158 158 160 161 163 164 159 155 161 166 156